EN

Hourly Weather Abomey

Today, 29 November, Sunday

Time Temperature Precipitation Wind Pressure Humidity
00:00 +26°C° 0 mm 1 mps 739 mmHg 87%
01:00 +26°C° 0 mm 1 mps 738 mmHg 87%
02:00 +26°C° 0 mm 1 mps 738 mmHg 88%
03:00 +26°C° 0 mm 1 mps 737 mmHg 88%
04:00 +25°C° 0 mm 1 mps 738 mmHg 88%
05:00 +25°C° 0 mm 1 mps 738 mmHg 89%
06:00 +25°C° 0 mm 1 mps 738 mmHg 88%
07:00 +27°C° 0 mm 1 mps 739 mmHg 79%
08:00 +29°C° 0 mm 1 mps 739 mmHg 70%
09:00 +31°C° 0 mm 2 mps 739 mmHg 61%
10:00 +34°C° 0 mm 2 mps 739 mmHg 54%
11:00 +35°C° 0 mm 2 mps 739 mmHg 48%
12:00 +37°C° 0 mm 2 mps 738 mmHg 41%
13:00 +37°C° 0 mm 2 mps 738 mmHg 38%
14:00 +37°C° 0 mm 2 mps 737 mmHg 35%
15:00 +38°C° 0 mm 2 mps 736 mmHg 33%
16:00 +35°C° 0 mm 3 mps 736 mmHg 44%
17:00 +33°C° 0 mm 3 mps 736 mmHg 55%
18:00 +30°C° 0 mm 3 mps 736 mmHg 67%
19:00 +29°C° 0 mm 3 mps 737 mmHg 71%
20:00 +28°C° 0 mm 3 mps 737 mmHg 75%
21:00 +27°C° 0 mm 3 mps 738 mmHg 80%
22:00 +27°C° 0 mm 2 mps 738 mmHg 82%
23:00 +27°C° 0 mm 2 mps 738 mmHg 84%

Tomorrow, 30 November, Monday

Time Temperature Precipitation Wind Pressure Humidity
00:00 +26°C° 0 mm 1 mps 738 mmHg 86%
01:00 +26°C° 0 mm 1 mps 737 mmHg 87%
02:00 +26°C° 0 mm 1 mps 737 mmHg 89%
03:00 +25°C° 0 mm 1 mps 737 mmHg 90%
04:00 +25°C° 0 mm 1 mps 737 mmHg 92%
05:00 +25°C° 0 mm 1 mps 738 mmHg 94%
06:00 +24°C° 0 mm 1 mps 738 mmHg 96%
07:00 +26°C° 0 mm 1 mps 739 mmHg 86%
08:00 +28°C° 0 mm 1 mps 739 mmHg 76%
09:00 +30°C° 0 mm 2 mps 740 mmHg 66%
10:00 +32°C° 0 mm 1 mps 740 mmHg 57%
11:00 +34°C° 0 mm 1 mps 739 mmHg 48%
12:00 +36°C° 0 mm 1 mps 739 mmHg 39%
13:00 +37°C° 0 mm 2 mps 738 mmHg 38%
14:00 +37°C° 0 mm 2 mps 737 mmHg 37%
15:00 +37°C° 0 mm 2 mps 737 mmHg 35%
16:00 +35°C° 0 mm 2 mps 737 mmHg 44%
17:00 +33°C° 0 mm 3 mps 737 mmHg 52%
18:00 +30°C° 0 mm 3 mps 737 mmHg 61%
19:00 +29°C° 0 mm 3 mps 737 mmHg 66%
20:00 +28°C° 0 mm 3 mps 738 mmHg 72%
21:00 +27°C° 0 mm 3 mps 738 mmHg 78%
22:00 +27°C° 0 mm 3 mps 738 mmHg 80%
23:00 +27°C° 0 mm 2 mps 738 mmHg 83%

Day after tomorrow, 1 December, Tuesday

Time Temperature Precipitation Wind Pressure Humidity
00:00 +26°C° 0 mm 2 mps 738 mmHg 85%
01:00 +26°C° 0 mm 2 mps 738 mmHg 88%
02:00 +25°C° 0 mm 1 mps 738 mmHg 91%
03:00 +25°C° 0 mm 1 mps 737 mmHg 93%
04:00 +25°C° 0 mm 1 mps 738 mmHg 94%
05:00 +25°C° 0 mm 1 mps 738 mmHg 95%
06:00 +25°C° 0 mm 1 mps 738 mmHg 96%
07:00 +26°C° 0 mm 1 mps 739 mmHg 87%
08:00 +28°C° 0 mm 1 mps 739 mmHg 78%
09:00 +30°C° 0 mm 1 mps 740 mmHg 69%
10:00 +31°C° 0 mm 1 mps 739 mmHg 61%
11:00 +33°C° 0 mm 1 mps 739 mmHg 54%
12:00 +35°C° 0 mm 1 mps 738 mmHg 46%
13:00 +36°C° 0 mm 2 mps 738 mmHg 43%
14:00 +36°C° 0 mm 2 mps 737 mmHg 40%
15:00 +37°C° 0 mm 2 mps 737 mmHg 37%
16:00 +35°C° 0 mm 2 mps 737 mmHg 46%
17:00 +33°C° 0 mm 3 mps 737 mmHg 54%
18:00 +30°C° 0 mm 3 mps 737 mmHg 62%
19:00 +29°C° 0 mm 3 mps 738 mmHg 68%
20:00 +28°C° 0 mm 3 mps 738 mmHg 73%
21:00 +27°C° 0 mm 3 mps 739 mmHg 78%
22:00 +27°C° 0 mm 3 mps 738 mmHg 80%
23:00 +27°C° 0 mm 2 mps 738 mmHg 83%

2 December, Wednesday

Time Temperature Precipitation Wind Pressure Humidity
00:00 +26°C° 0 mm 2 mps 738 mmHg 85%
01:00 +26°C° 0 mm 2 mps 738 mmHg 87%
02:00 +26°C° 0 mm 2 mps 738 mmHg 88%
03:00 +25°C° 0 mm 2 mps 737 mmHg 90%
04:00 +25°C° 0 mm 1 mps 738 mmHg 92%
05:00 +25°C° 0 mm 1 mps 738 mmHg 93%
06:00 +22°C° 0 mm 0 mps 738 mmHg 95%
07:00 +26°C° 0 mm 1 mps 739 mmHg 84%
08:00 +29°C° 0 mm 2 mps 739 mmHg 73%
09:00 +31°C° 0 mm 2 mps 739 mmHg 63%
10:00 +34°C° 0 mm 2 mps 739 mmHg 54%
11:00 +35°C° 0 mm 1 mps 738 mmHg 45%
12:00 +39°C° 0 mm 1 mps 738 mmHg 36%
13:00 +37°C° 0 mm 1 mps 737 mmHg 34%
14:00 +37°C° 0 mm 1 mps 737 mmHg 32%
15:00 +38°C° 0 mm 2 mps 736 mmHg 30%
16:00 +36°C° 0 mm 3 mps 736 mmHg 41%
17:00 +33°C° 0 mm 3 mps 736 mmHg 52%
18:00 +30°C° 0 mm 4 mps 736 mmHg 63%
19:00 +29°C° 0 mm 4 mps 737 mmHg 68%
20:00 +28°C° 0 mm 4 mps 738 mmHg 72%
21:00 +28°C° 0 mm 4 mps 738 mmHg 77%
22:00 +27°C° 0 mm 3 mps 738 mmHg 79%
23:00 +27°C° 0 mm 3 mps 738 mmHg 81%

3 December, Thursday

Time Temperature Precipitation Wind Pressure Humidity
00:00 +27°C° 0 mm 3 mps 738 mmHg 83%
01:00 +26°C° 0 mm 3 mps 738 mmHg 85%
02:00 +26°C° 0 mm 3 mps 738 mmHg 87%
03:00 +26°C° 0 mm 3 mps 738 mmHg 88%
04:00 +25°C° 0 mm 2 mps 738 mmHg 90%
05:00 +25°C° 0 mm 2 mps 738 mmHg 92%
06:00 +25°C° 0 mm 1 mps 739 mmHg 94%
07:00 +27°C° 0 mm 2 mps 739 mmHg 84%
08:00 +29°C° 0 mm 2 mps 739 mmHg 74%
09:00 +31°C° 0 mm 3 mps 740 mmHg 64%
10:00 +32°C° 0 mm 2 mps 739 mmHg 57%
11:00 +34°C° 0 mm 1 mps 739 mmHg 51%
12:00 +35°C° 0 mm 1 mps 738 mmHg 45%
13:00 +35°C° 0 mm 1 mps 738 mmHg 43%
14:00 +36°C° 0 mm 2 mps 737 mmHg 41%
15:00 +36°C° 0 mm 2 mps 736 mmHg 39%
16:00 +35°C° 0 mm 3 mps 736 mmHg 47%
17:00 +33°C° 0 mm 3 mps 737 mmHg 54%
18:00 +30°C° 0 mm 3 mps 737 mmHg 62%
19:00 +29°C° 0 mm 3 mps 737 mmHg 67%
20:00 +28°C° 0 mm 3 mps 738 mmHg 73%
21:00 +27°C° 0 mm 3 mps 738 mmHg 78%
22:00 +27°C° 0 mm 3 mps 738 mmHg 80%
23:00 +27°C° 0 mm 3 mps 738 mmHg 82%

4 December, Friday

Time Temperature Precipitation Wind Pressure Humidity
00:00 +26°C° 0 mm 2 mps 738 mmHg 84%
01:00 +26°C° 0 mm 2 mps 738 mmHg 86%
02:00 +25°C° 0 mm 2 mps 737 mmHg 87%
03:00 +25°C° 0 mm 2 mps 737 mmHg 89%
04:00 +25°C° 0 mm 2 mps 737 mmHg 91%
05:00 +25°C° 0 mm 1 mps 738 mmHg 93%
06:00 +24°C° 0 mm 1 mps 738 mmHg 95%
07:00 +26°C° 0 mm 1 mps 739 mmHg 85%
08:00 +28°C° 0 mm 2 mps 739 mmHg 75%
09:00 +30°C° 0 mm 2 mps 740 mmHg 65%
10:00 +32°C° 0 mm 2 mps 739 mmHg 56%
11:00 +35°C° 0 mm 2 mps 739 mmHg 48%
12:00 +36°C° 0 mm 1 mps 739 mmHg 39%
13:00 +37°C° 0 mm 2 mps 738 mmHg 39%
14:00 +37°C° 0 mm 3 mps 738 mmHg 39%
15:00 +37°C° 0 mm 3 mps 737 mmHg 38%
16:00 +35°C° 0 mm 3 mps 737 mmHg 46%
17:00 +33°C° 0 mm 3 mps 737 mmHg 54%
18:00 +30°C° 0 mm 3 mps 737 mmHg 62%
19:00 +29°C° 0 mm 3 mps 738 mmHg 67%
20:00 +28°C° 0 mm 3 mps 739 mmHg 72%
21:00 +27°C° 0 mm 3 mps 739 mmHg 77%
22:00 +27°C° 0 mm 3 mps 739 mmHg 79%
23:00 +27°C° 0 mm 3 mps 739 mmHg 81%
Show more

We Need Your Consent

Meteoprog and our Service Providers may store and access personal data such as cookies, device identifiers or other similar technologies on your device and process such data to personalise content and ads, as well as provide social media features and to analyse the traffic.

  • Store and/or access information on your device

    Cookies, device identifiers or other information can be stored or accessed on your device for the purposes indicated above.

  • Personalised ads and content, ad and content measurement, audience insights, and products development

    Ads and content can be personalised based on a profile. More data can be added to better personalise ads and content. Ad and content performance can be measured. Insights about the audience who saw the ads and content can be derived. Such data can be used to develop or improve user’s experience, systems and software.

By clicking ‘I Agree’ you will allow the use of indicated cookies, device identifiers, web beacons or other similar technologies. Your settings can be changed in the browser on your device.

For certain purposes, legitimate interests may be relied on, rather than consent. You can read more about this in our Privacy and Cookie Policy.